TimeCDT,TemperatureF,Dew PointF,Humidity,Sea Level PressureIn,VisibilityMPH,Wind Direction,Wind SpeedMPH,Gust SpeedMPH,PrecipitationIn,Events,Conditions,WindDirDegrees,DateUTC
12:53 AM,37.0,8.1,30,30.41,10.0,North,24.2,32.2,N/A,,Overcast,10,2014-03-23 05:53:00
1:53 AM,34.0,10.9,38,30.42,10.0,NNE,18.4,-,N/A,,Clear,20,2014-03-23 06:53:00
2:53 AM,33.1,12.9,43,30.43,10.0,North,16.1,-,N/A,,Clear,10,2014-03-23 07:53:00
3:53 AM,33.1,15.1,48,30.43,10.0,North,18.4,24.2,N/A,,Mostly Cloudy,10,2014-03-23 08:53:00
4:53 AM,30.0,18.0,61,30.45,10.0,North,16.1,24.2,N/A,,Clear,10,2014-03-23 09:53:00
5:53 AM,28.0,18.0,66,30.47,10.0,North,13.8,-,N/A,,Clear,10,2014-03-23 10:53:00
6:53 AM,27.0,18.0,69,30.48,10.0,NNE,17.3,-,N/A,,Clear,20,2014-03-23 11:53:00
7:53 AM,26.1,18.0,71,30.50,10.0,NNE,18.4,-,N/A,,Clear,20,2014-03-23 12:53:00
8:53 AM,27.0,18.0,69,30.52,10.0,NNE,20.7,-,N/A,,Clear,30,2014-03-23 13:53:00
9:16 AM,28.4,17.6,64,30.50,10.0,NE,15.0,23.0,N/A,,Mostly Cloudy,40,2014-03-23 14:16:00
9:48 AM,30.2,19.4,64,30.51,10.0,NE,16.1,-,N/A,,Partly Cloudy,40,2014-03-23 14:48:00
9:53 AM,30.9,19.0,61,30.53,10.0,NE,17.3,-,N/A,,Partly Cloudy,40,2014-03-23 14:53:00
10:53 AM,35.1,17.1,48,30.53,10.0,ENE,11.5,19.6,N/A,,Clear,60,2014-03-23 15:53:00
11:53 AM,39.9,17.1,40,30.51,10.0,NNE,12.7,20.7,N/A,,Clear,30,2014-03-23 16:53:00
12:53 PM,42.1,17.1,37,30.48,10.0,NE,12.7,17.3,N/A,,Clear,50,2014-03-23 17:53:00
1:53 PM,45.0,19.0,36,30.44,10.0,Variable,4.6,-,N/A,,Clear,0,2014-03-23 18:53:00
2:53 PM,48.0,19.0,32,30.39,10.0,NNE,5.8,-,N/A,,Clear,30,2014-03-23 19:53:00
3:53 PM,48.0,18.0,30,30.35,10.0,NE,10.4,16.1,N/A,,Clear,40,2014-03-23 20:53:00
4:53 PM,48.0,19.0,32,30.33,10.0,East,9.2,-,N/A,,Clear,90,2014-03-23 21:53:00
5:53 PM,48.9,18.0,29,30.31,10.0,North,3.5,-,N/A,,Clear,10,2014-03-23 22:53:00
6:53 PM,46.0,19.0,34,30.31,10.0,East,6.9,-,N/A,,Clear,80,2014-03-23 23:53:00
7:53 PM,44.1,18.0,35,30.30,10.0,East,3.5,-,N/A,,Clear,80,2014-03-24 00:53:00
8:53 PM,39.9,18.0,41,30.29,10.0,ESE,5.8,-,N/A,,Clear,120,2014-03-24 01:53:00
9:53 PM,37.9,19.9,48,30.30,10.0,ESE,8.1,-,N/A,,Clear,120,2014-03-24 02:53:00
10:53 PM,35.1,19.0,52,30.29,10.0,ESE,5.8,-,N/A,,Clear,110,2014-03-24 03:53:00
11:53 PM,34.0,21.0,59,30.29,10.0,SE,5.8,-,N/A,,Clear,130,2014-03-24 04:53:00